Simultaneous Nadir Overpasses (SNOs) Predictions

Prediction of SNOs between GOES-15 and TERRA Satellite Orbit:

Table of predicted SNOs for the next 14.0 days since TLE Epoch: 5/30/2020
Index Date Time (GOES-15) GOES-15 Lat,Lon TERRA Lat,Lon Distance(km) Time Diff (sec)
1 05/31/2020 19:02:47 0.13,-128.13 0.09,-127.78 38.87 80
2 06/02/2020 18:50:36 0.13,-128.09 -0.59,-124.83 370.99 80
3 06/03/2020 07:12:00 -0.12,-128.05 -0.52,-130.02 223.39 80
4 06/05/2020 06:59:48 -0.12,-128.00 0.10,-127.06 108.06 80
5 06/05/2020 19:18:23 0.11,-128.01 1.01,-132.21 477.67 80
6 06/07/2020 06:44:56 -0.12,-127.95 0.73,-124.10 438.86 80
7 06/07/2020 19:06:11 0.11,-127.96 0.38,-129.25 146.84 80
8 06/09/2020 18:56:39 0.10,-127.90 -0.25,-126.29 183.68 80
9 06/10/2020 07:18:03 -0.09,-127.87 -0.86,-131.48 410.12 80
10 06/12/2020 07:05:51 -0.09,-127.82 -0.23,-128.52 79.72 80




NCC Satellite Simultaneous Nadir Overpasses (SNOs) Prediction Service
